Flag for Uruguay Weather past 2 weeks in Montevideo, Uruguay

Now
64 °F

Clear.


Feels Like: 64 °F
Forecast: 66 / 80 °F
Wind: 9 mph from Northeast

Location: Carrasco

Current Time: Mar 1, 2015 at 5:25:53 AM

Latest Report: Mar 1, 2015 at 5:00 AM


Visibility: 10 mi

Pressure: 30.01 "Hg

Humidity: 78%

Dew point: 57 °F

Location of MontevideoLocation

Historic Weather in Montevideo — Graph

°F

Montevideo temperature yesterday

Maximum temperature yesterday: 75 °F (at 2:00 PM)
Minimum temperature yesterday: 54 °F (at 8:00 AM)
Average temperature yesterday: 67 °F

Past Weeks' High & Low Weather Summary

 TemperatureHumidityPressure
High90 °F (Feb 24, 2:00 PM)100% (Feb 19, 9:00 AM)30.18 "Hg (Feb 19, 9:00 AM)
Low54 °F (Feb 28, 8:00 AM)37% (Feb 17, 2:00 PM)29.62 "Hg (Feb 18, 8:00 PM)
Average72 °F73%29.98 "Hg
* Reported Feb 14 4:00 AM — Mar 1 4:00 AM, Montevideo, Weather by CustomWeather, © 2015

Note: Actual official high and low records may vary slightly from our data, if they occured in-between our weather recording intervals... More about our weather records

Advertising

Montevideo weather history for previous 24 hours

 ConditionsComfort  
Time TempWeatherWind HumidityBarometerVisibility
4:00 AM
Sun, Mar 1
64 °FClear.8 mph78%30.01 "Hg10 mi
3:00 AM66 °FClear.9 mph68%30.04 "Hg10 mi
2:00 AM66 °FClear.10 mph68%30.04 "Hg10 mi
1:00 AM66 °FClear.12 mph68%30.04 "Hg10 mi
12:00 AM68 °FClear.12 mph64%30.04 "Hg10 mi
11:00 PM
Sat, Feb 28
70 °FClear.12 mph64%30.04 "Hg10 mi
10:00 PM72 °FClear.13 mph65%30.04 "Hg10 mi
9:00 PM70 °FClear.15 mph73%30.01 "Hg10 mi
8:00 PM70 °FSunny.15 mph69%30.01 "Hg10 mi
7:00 PM72 °FSunny.12 mph65%30.04 "Hg10 mi
6:00 PM72 °FSunny.12 mph61%30.04 "Hg10 mi
5:00 PM73 °FSunny.13 mph57%30.07 "Hg10 mi
4:00 PM75 °FSunny.14 mph54%30.07 "Hg10 mi
3:00 PM73 °FPassing clouds.12 mph50%30.07 "HgN/A
2:00 PM75 °FScattered clouds.5 mph41%30.09 "HgN/A
1:00 PM73 °FScattered clouds.7 mph44%30.09 "HgN/A
12:00 PM73 °FScattered clouds.9 mph47%30.09 "HgN/A
11:00 AM72 °FSunny.6 mph53%30.09 "Hg10 mi
10:00 AM64 °FSunny.No wind68%30.09 "Hg10 mi
9:00 AM57 °FSunny.No wind88%30.07 "Hg10 mi
8:00 AM54 °FSunny.No wind88%30.07 "Hg10 mi
7:00 AM55 °FClear.No wind82%30.04 "Hg10 mi
6:00 AM55 °FClear.No wind82%30.07 "Hg10 mi
5:00 AM59 °FClear.No wind59%30.07 "Hg10 mi
Weather by CustomWeather, © 2015

See weather overviewHow to use our weather pages